﻿_id,日時,平均風速(m/s),平均風向,最大瞬間風速(m/s),最大風速時風向,気温(℃),湿度(%),10分間移動積算雨量(mm),1時間移動積算雨量(mm),日雨量(mm),累計雨量(mm)
1,2021-10-18T00:00:00,0.9,東,1.9,東,9.6,88.7,0,0,6,8
2,2021-10-18T00:01:00,0.9,東,1.9,東,9.6,88.4,0,0,0,8
3,2021-10-18T00:02:00,0.9,東,1.9,東,9.5,88.6,0,0,0,8
4,2021-10-18T00:03:00,0.9,東,1.9,東,9.4,88.7,0,0,0,8
5,2021-10-18T00:04:00,0.9,東北東,1.8,東,9.4,88.9,0,0,0,8
6,2021-10-18T00:05:00,0.8,東北東,1.7,東,9.5,89.4,0,0,0,8
7,2021-10-18T00:06:00,0.8,東,1.4,東北東,9.5,89.7,0,0,0,8
8,2021-10-18T00:07:00,0.7,東北東,1.4,東北東,9.6,90.2,0,0,0,8
9,2021-10-18T00:08:00,0.8,東北東,1.4,東北東,9.5,89.6,0,0,0,8
10,2021-10-18T00:09:00,0.8,東北東,1.5,東南東,9.4,89.5,0,0,0,8
11,2021-10-18T00:10:00,0.8,東,1.5,東南東,9.4,89.6,0,0,0,8
12,2021-10-18T00:11:00,0.8,東,1.5,東南東,9.4,89.8,0,0,0,8
13,2021-10-18T00:12:00,0.9,東,1.7,東,9.4,89.9,0,0,0,8
14,2021-10-18T00:13:00,0.9,東,1.7,東,9.4,90.1,0,0,0,8
15,2021-10-18T00:14:00,0.9,東,1.7,東,9.5,90.4,0,0,0,8
16,2021-10-18T00:15:00,0.9,東,1.7,東,9.5,90.5,0,0,0,8
17,2021-10-18T00:16:00,1,東,2,東南東,9.5,90.4,0,0,0,8
18,2021-10-18T00:17:00,1.1,東,2.4,東南東,9.5,90.5,0,0,0,8
19,2021-10-18T00:18:00,1.2,東,2.9,東南東,9.5,90.3,0,0,0,8
20,2021-10-18T00:19:00,1.3,東,2.9,東南東,9.4,90.2,0,0,0,8
21,2021-10-18T00:20:00,1.4,東,2.9,東南東,9.5,90.4,0,0,0,8
22,2021-10-18T00:21:00,1.5,東,2.9,東南東,9.5,90.6,0,0,0,8
23,2021-10-18T00:22:00,1.5,東,2.9,東南東,9.6,90.8,0,0,0,8
24,2021-10-18T00:23:00,1.5,東,2.9,東南東,9.6,90.6,0,0,0,8
25,2021-10-18T00:24:00,1.5,東,2.9,東南東,9.5,90.6,0,0,0,8
26,2021-10-18T00:25:00,1.5,東,2.9,東南東,9.5,90.3,0,0,0,8
27,2021-10-18T00:26:00,1.5,東,2.9,東南東,9.5,90.2,0,0,0,8
28,2021-10-18T00:27:00,1.5,東,2.9,東南東,9.5,90.3,0,0,0,8
29,2021-10-18T00:28:00,1.3,東,2.6,南東,9.5,90.3,0,0,0,8
30,2021-10-18T00:29:00,1.2,東,2.4,東,9.5,90.4,0,0,0,8
31,2021-10-18T00:30:00,1.1,東,2.4,東,9.5,90.2,0,0,0,8
32,2021-10-18T00:31:00,1.1,東,1.9,東南東,9.4,90.2,0,0,0,8
33,2021-10-18T00:32:00,1.1,東,1.9,東南東,9.4,90.2,0,0,0,8
34,2021-10-18T00:33:00,1.1,東,1.9,東南東,9.4,90.3,0,0,0,8
35,2021-10-18T00:34:00,1,東,1.9,東南東,9.4,90.3,0,0,0,8
36,2021-10-18T00:35:00,1,東,1.9,東南東,9.4,90.2,0,0,0,8
37,2021-10-18T00:36:00,1,東,1.9,東南東,9.3,89.9,0,0,0,8
38,2021-10-18T00:37:00,1,東,1.9,東南東,9.2,89.9,0,0,0,8
39,2021-10-18T00:38:00,1,東,1.9,東南東,9.2,90.2,0,0,0,8
40,2021-10-18T00:39:00,1,東,1.9,東南東,9.2,90.2,0,0,0,8
41,2021-10-18T00:40:00,1.1,東,2.2,東,9.2,90.3,0,0,0,8
42,2021-10-18T00:41:00,1.2,東,2.9,東,9.2,90.5,0,0,0,8
43,2021-10-18T00:42:00,1.3,東,2.9,東,9.2,90.6,0,0,0,8
44,2021-10-18T00:43:00,1.4,東,2.9,東,9.1,90.5,0,0,0,8
45,2021-10-18T00:44:00,1.5,東,2.9,東,9,90.4,0,0,0,8
46,2021-10-18T00:45:00,1.5,東,2.9,東,9.1,90.7,0,0,0,8
47,2021-10-18T00:46:00,1.6,東,2.9,東,9.1,90.9,0,0,0,8
48,2021-10-18T00:47:00,1.7,東南東,3.1,東,9.2,91.1,0,0,0,8
49,2021-10-18T00:48:00,1.8,東南東,3.1,東,9.2,91.2,0,0,0,8
50,2021-10-18T00:49:00,1.9,東南東,3.1,東,9.2,91.3,0,0,0,8
51,2021-10-18T00:50:00,1.9,東南東,3.1,東,9.2,91.1,0,0,0,8
52,2021-10-18T00:51:00,2,東南東,3.1,東,9.1,90.9,0,0,0,8
53,2021-10-18T00:52:00,2,東南東,3.1,東,9.1,90.9,0,0,0,8
54,2021-10-18T00:53:00,1.9,東南東,3.1,東,9.1,91,0,0,0,8
55,2021-10-18T00:54:00,1.9,東南東,3.1,東,9.3,91.6,0,0,0,8
56,2021-10-18T00:55:00,1.8,東南東,3.1,東,9.3,91.7,0,0,0,8
57,2021-10-18T00:56:00,1.7,東南東,3.1,東,9.2,91.3,0,0,0,8
58,2021-10-18T00:57:00,1.6,東南東,2.6,東南東,9.1,90.8,0,0,0,8
59,2021-10-18T00:58:00,1.5,東,2.6,東南東,9,90.8,0,0,0,8
60,2021-10-18T00:59:00,1.4,東,2.6,東南東,9,90.8,0,0,0,8
61,2021-10-18T01:00:00,1.3,東,2.5,東南東,8.9,90.9,0,0,0,8
62,2021-10-18T01:01:00,1.2,東,2.3,東南東,8.9,91.1,0,0,0,8
63,2021-10-18T01:02:00,1.1,東,2,東南東,8.9,91.4,0,0,0,8
64,2021-10-18T01:03:00,1,東北東,1.7,北東,8.9,91.5,0,0,0,8
65,2021-10-18T01:04:00,1,東北東,1.7,北東,8.9,91.4,0,0,0,8
66,2021-10-18T01:05:00,1,東北東,1.7,北東,8.8,91.3,0,0,0,8
67,2021-10-18T01:06:00,1,東北東,1.7,北東,8.9,91.5,0,0,0,8
68,2021-10-18T01:07:00,1,東北東,1.8,東南東,8.9,91.8,0,0,0,8
69,2021-10-18T01:08:00,1.1,東北東,2.1,東南東,8.9,91.8,0,0,0,8
70,2021-10-18T01:09:00,1.2,東北東,2.1,東南東,8.9,91.9,0,0,0,8
71,2021-10-18T01:10:00,1.2,東北東,2.1,東南東,8.9,91.9,0,0,0,8
72,2021-10-18T01:11:00,1.2,東,2.1,東南東,8.9,91.9,0,0,0,8
73,2021-10-18T01:12:00,1.2,東,2.1,東南東,8.9,91.9,0,0,0,8
74,2021-10-18T01:13:00,1.2,東,2.1,東南東,9,92.5,0,0,0,8
75,2021-10-18T01:14:00,1.1,東南東,2.1,東南東,9,92.3,0,0,0,8
76,2021-10-18T01:15:00,1.2,東南東,2.1,東南東,9,92.3,0,0,0,8
77,2021-10-18T01:16:00,1.2,東南東,2.1,東南東,9,92.1,0,0,0,8
78,2021-10-18T01:17:00,1.2,東南東,2.1,東南東,9,92.1,0,0,0,8
79,2021-10-18T01:18:00,1.1,東南東,1.8,東南東,9,92.2,0,0,0,8
80,2021-10-18T01:19:00,1,東南東,1.7,東南東,9,92.1,0,0,0,8
81,2021-10-18T01:20:00,0.9,東南東,1.7,東南東,9,92.1,0,0,0,8
82,2021-10-18T01:21:00,0.9,東南東,1.7,東南東,9,92.1,0,0,0,8
83,2021-10-18T01:22:00,0.9,東南東,1.7,東南東,9,92.2,0,0,0,8
84,2021-10-18T01:23:00,0.9,東,1.7,東南東,9,92.2,0,0,0,8
85,2021-10-18T01:24:00,0.9,東,2,東北東,9,92.3,0,0,0,8
86,2021-10-18T01:25:00,0.9,東,2,東北東,8.9,92,0,0,0,8
87,2021-10-18T01:26:00,0.9,東,2,東北東,8.9,91.9,0,0,0,8
88,2021-10-18T01:27:00,1,東,2,東北東,8.9,92.1,0,0,0,8
89,2021-10-18T01:28:00,1,東,2,東北東,8.9,92.3,0,0,0,8
90,2021-10-18T01:29:00,1.1,東,2,東北東,8.9,92.2,0,0,0,8
91,2021-10-18T01:30:00,1.1,東,2,東北東,8.9,92.3,0,0,0,8
92,2021-10-18T01:31:00,1.1,東北東,2,東北東,8.8,92.2,0,0,0,8
93,2021-10-18T01:32:00,1.1,東北東,2,東北東,8.8,92.4,0,0,0,8
94,2021-10-18T01:33:00,1.1,東北東,2,東北東,8.8,92.5,0,0,0,8
95,2021-10-18T01:34:00,1.1,東北東,1.8,東南東,8.8,92.5,0,0,0,8
96,2021-10-18T01:35:00,1.1,東,1.8,東南東,8.9,92.8,0,0,0,8
97,2021-10-18T01:36:00,1,東,1.8,東南東,9,93.1,0,0,0,8
98,2021-10-18T01:37:00,1,東,1.8,東南東,8.9,92.9,0,0,0,8
99,2021-10-18T01:38:00,1,東,1.8,東南東,8.9,92.6,0,0,0,8
100,2021-10-18T01:39:00,1,東,1.8,東南東,8.9,92.8,0,0,0,8
101,2021-10-18T01:40:00,1,東,1.8,東南東,9,93,0,0,0,8
102,2021-10-18T01:41:00,1,東南東,1.8,東南東,8.9,92.8,0,0,0,8
103,2021-10-18T01:42:00,1,東南東,1.8,東南東,8.9,92.8,0,0,0,8
104,2021-10-18T01:43:00,1,東南東,1.8,東南東,8.9,92.9,0,0,0,8
105,2021-10-18T01:44:00,0.9,東南東,1.7,東南東,9,93.1,0,0,0,8
106,2021-10-18T01:45:00,0.9,東南東,1.5,東南東,9.3,93.6,0,0,0,8
107,2021-10-18T01:46:00,0.9,東南東,1.5,東南東,9.2,93.6,0,0,0,8
108,2021-10-18T01:47:00,0.8,東南東,1.5,東南東,9.1,93,0,0,0,8
109,2021-10-18T01:48:00,0.8,東南東,1.4,南南東,8.9,92.4,0,0,0,8
110,2021-10-18T01:49:00,0.8,東南東,1.4,南南東,8.9,92.6,0,0,0,8
111,2021-10-18T01:50:00,0.8,東南東,1.4,南南東,9,92.9,0,0,0,8
112,2021-10-18T01:51:00,0.7,東南東,1.4,南南東,9,93,0,0,0,8
113,2021-10-18T01:52:00,0.7,東,1.3,東南東,9,93,0,0,0,8
114,2021-10-18T01:53:00,0.6,東,1.3,東南東,9,93.1,0,0,0,8
115,2021-10-18T01:54:00,0.6,東,1.3,東南東,9,93.1,0,0,0,8
116,2021-10-18T01:55:00,0.6,東,1.6,東北東,9,93,0,0,0,8
117,2021-10-18T01:56:00,0.7,東,1.6,東北東,8.9,92.6,0,0,0,8
118,2021-10-18T01:57:00,0.7,東,1.6,東北東,8.8,92.6,0,0,0,8
119,2021-10-18T01:58:00,0.7,東,1.6,東北東,8.9,93.1,0,0,0,8
120,2021-10-18T01:59:00,0.6,東,1.6,東北東,9,93.3,0,0,0,8
121,2021-10-18T02:00:00,0.6,東,1.6,東北東,8.8,92.9,0,0,0,8
122,2021-10-18T02:01:00,0.6,東,1.6,東北東,8.7,92.3,0,0,0,8
123,2021-10-18T02:02:00,0.6,東,1.6,東北東,8.7,92.7,0,0,0,8
124,2021-10-18T02:03:00,0.7,東,1.6,東北東,8.8,93.1,0,0,0,8
125,2021-10-18T02:04:00,0.7,東,1.6,東北東,8.8,93.1,0,0,0,8
126,2021-10-18T02:05:00,0.8,東,2.1,東,8.8,93.1,0,0,0,8
127,2021-10-18T02:06:00,0.8,東,2.2,東南東,8.8,93,0,0,0,8
128,2021-10-18T02:07:00,0.8,東,2.2,東南東,8.8,93,0,0,0,8
129,2021-10-18T02:08:00,0.9,東,2.2,東南東,8.7,93,0,0,0,8
130,2021-10-18T02:09:00,1,東,2.2,東南東,8.7,93,0,0,0,8
131,2021-10-18T02:10:00,1,東,2.2,東南東,8.6,92.6,0,0,0,8
132,2021-10-18T02:11:00,1.1,東北東,2.2,東南東,8.6,92.7,0,0,0,8
133,2021-10-18T02:12:00,1.1,東北東,2.2,東南東,8.6,93,0,0,0,8
134,2021-10-18T02:13:00,1.2,東北東,2.2,東南東,8.6,93.2,0,0,0,8
135,2021-10-18T02:14:00,1.2,東北東,2.2,東南東,8.7,93.2,0,0,0,8
136,2021-10-18T02:15:00,1.2,東北東,2.2,東南東,8.7,93.3,0,0,0,8
137,2021-10-18T02:16:00,1.1,東北東,2.1,東南東,8.7,93.3,0,0,0,8
138,2021-10-18T02:17:00,1.2,東北東,2.4,東南東,8.7,93.4,0,0,0,8
139,2021-10-18T02:18:00,1.3,東北東,2.4,東南東,8.7,93.4,0,0,0,8
140,2021-10-18T02:19:00,1.4,東,2.4,東南東,8.7,93.5,0,0,0,8
141,2021-10-18T02:20:00,1.4,東,2.4,東南東,8.7,93.2,0,0,0,8
142,2021-10-18T02:21:00,1.4,東,2.4,東南東,8.8,93.6,0,0,0,8
143,2021-10-18T02:22:00,1.4,東南東,2.4,東南東,8.8,93.6,0,0,0,8
144,2021-10-18T02:23:00,1.3,東南東,2.4,東南東,8.7,93.2,0,0,0,8
145,2021-10-18T02:24:00,1.3,東南東,2.4,東南東,8.8,93.3,0,0,0,8
146,2021-10-18T02:25:00,1.2,南東,2.4,東南東,8.7,93.1,0,0,0,8
147,2021-10-18T02:26:00,1.2,南東,2.4,東南東,8.7,93.3,0,0,0,8
148,2021-10-18T02:27:00,1.2,南東,2.4,東南東,8.8,93.5,0,0,0,8
149,2021-10-18T02:28:00,1.2,南東,2.2,東南東,8.8,93.4,0,0,0,8
150,2021-10-18T02:29:00,1.2,南東,2.1,東南東,8.8,93.5,0,0,0,8
151,2021-10-18T02:30:00,1.2,南東,2.1,東南東,8.8,93.5,0,0,0,8
152,2021-10-18T02:31:00,1.2,東南東,2.1,東南東,8.8,93.5,0,0,0,8
153,2021-10-18T02:32:00,1.2,東南東,2.1,東南東,8.7,93.3,0,0,0,8
154,2021-10-18T02:33:00,1.3,東南東,2.1,東南東,8.7,93.1,0,0,0,8
155,2021-10-18T02:34:00,1.3,東,2.1,東南東,8.6,93.1,0,0,0,8
156,2021-10-18T02:35:00,1.2,東,2.1,東南東,8.6,93.3,0,0,0,8
157,2021-10-18T02:36:00,1.2,東,2.1,東南東,8.6,93.3,0,0,0,8
158,2021-10-18T02:37:00,1.2,東,2.1,東南東,8.6,93.5,0,0,0,8
159,2021-10-18T02:38:00,1.1,東北東,1.9,東南東,8.6,93.5,0,0,0,8
160,2021-10-18T02:39:00,1,東北東,1.8,東北東,8.6,93.7,0,0,0,8
161,2021-10-18T02:40:00,1.1,東北東,2,東北東,8.6,93.6,0,0,0,8
162,2021-10-18T02:41:00,1.2,東北東,2,東北東,8.6,93.7,0,0,0,8
163,2021-10-18T02:42:00,1.2,東北東,2,東北東,8.6,93.8,0,0,0,8
164,2021-10-18T02:43:00,1.2,東北東,2,東北東,8.7,94,0,0,0,8
165,2021-10-18T02:44:00,1.2,東北東,2,東北東,8.7,94.1,0,0,0,8
166,2021-10-18T02:45:00,1.2,東北東,2,東北東,8.7,94.1,0,0,0,8
167,2021-10-18T02:46:00,1.2,東北東,2,東北東,8.7,94,0,0,0,8
168,2021-10-18T02:47:00,1.3,東,2,東北東,8.7,94,0,0,0,8
169,2021-10-18T02:48:00,1.3,東,2,東北東,8.7,94,0,0,0,8
170,2021-10-18T02:49:00,1.3,東,2,東北東,8.7,93.9,0,0,0,8
171,2021-10-18T02:50:00,1.3,東,2,東南東,8.7,93.9,0,0,0,8
172,2021-10-18T02:51:00,1.1,東南東,2,東南東,9,94.5,0,0,0,8
173,2021-10-18T02:52:00,1.1,東南東,2,東南東,9.1,94.6,0,0,0,8
174,2021-10-18T02:53:00,1.1,東南東,2,東南東,9,94.3,0,0,0,8
175,2021-10-18T02:54:00,1,東南東,2,東南東,9,94.3,0,0,0,8
176,2021-10-18T02:55:00,1,東南東,2,東南東,8.9,93.8,0,0,0,8
177,2021-10-18T02:56:00,0.9,東南東,2,東南東,8.8,93.2,0,0,0,8
178,2021-10-18T02:57:00,0.9,東南東,2,東南東,8.7,93.1,0,0,0,8
179,2021-10-18T02:58:00,0.9,東,2,東南東,8.7,93.2,0,0,0,8
180,2021-10-18T02:59:00,0.9,東,1.6,南東,8.7,93.4,0,0,0,8
181,2021-10-18T03:00:00,0.9,東,1.6,南東,8.6,93.5,0,0,0,8
182,2021-10-18T03:01:00,0.9,東,1.6,南東,8.7,93.7,0,0,0,8
183,2021-10-18T03:02:00,1,東北東,1.6,南東,8.7,93.8,0,0,0,8
184,2021-10-18T03:03:00,1,東北東,1.5,東北東,8.7,93.8,0,0,0,8
185,2021-10-18T03:04:00,1,東北東,1.5,東北東,8.7,93.8,0,0,0,8
186,2021-10-18T03:05:00,1,東北東,1.5,東北東,8.7,93.8,0,0,0,8
187,2021-10-18T03:06:00,1.1,東北東,2,南東,8.7,94,0,0,0,8
188,2021-10-18T03:07:00,1.1,東,2,南東,8.8,94.1,0,0,0,8
189,2021-10-18T03:08:00,1,東,2,南東,9.1,94.6,0,0,0,8
190,2021-10-18T03:09:00,0.9,東,2,南東,9.3,95.3,0,0,0,8
191,2021-10-18T03:10:00,1,東南東,2,南東,9,94.4,0,0,0,8
192,2021-10-18T03:11:00,1,東南東,2,南東,8.9,93.8,0,0,0,8
193,2021-10-18T03:12:00,1,東南東,2,南東,8.8,93.4,0,0,0,8
194,2021-10-18T03:13:00,1.1,東南東,2,南東,8.8,93.4,0,0,0,8
195,2021-10-18T03:14:00,1,南東,2,南東,8.8,93.7,0,0,0,8
196,2021-10-18T03:15:00,0.9,南東,2,南東,8.8,93.6,0,0,0,8
197,2021-10-18T03:16:00,0.9,南東,2,東南東,8.8,93.7,0,0,0,8
198,2021-10-18T03:17:00,0.9,南東,1.9,東南東,8.8,93.6,0,0,0,8
199,2021-10-18T03:18:00,1,南東,2,東南東,8.8,93.4,0,0,0,8
200,2021-10-18T03:19:00,1.1,東南東,2,東南東,8.7,93.4,0,0,0,8
201,2021-10-18T03:20:00,1.1,東南東,2,東南東,8.8,93.6,0,0,0,8
202,2021-10-18T03:21:00,1.1,東南東,2,東南東,8.7,93.6,0,0,0,8
203,2021-10-18T03:22:00,1.1,東南東,2,東南東,8.7,93.5,0,0,0,8
204,2021-10-18T03:23:00,1.1,東南東,2,東南東,8.7,93.4,0,0,0,8
205,2021-10-18T03:24:00,1.1,東南東,2,東南東,8.7,93.6,0,0,0,8
206,2021-10-18T03:25:00,1.2,東南東,2,東南東,8.7,93.5,0,0,0,8
207,2021-10-18T03:26:00,1.2,東南東,2,東南東,8.7,93.3,0,0,0,8
208,2021-10-18T03:27:00,1.2,東南東,2,東南東,8.6,92.9,0,0,0,8
209,2021-10-18T03:28:00,1.1,東南東,1.9,東南東,8.5,93,0,0,0,8
210,2021-10-18T03:29:00,1.1,東南東,1.7,南東,8.5,93.1,0,0,0,8
211,2021-10-18T03:30:00,1,東南東,1.7,南東,8.5,93,0,0,0,8
212,2021-10-18T03:31:00,1,東,1.7,南東,8.4,93.1,0,0,0,8
213,2021-10-18T03:32:00,1,東,1.7,南東,8.3,92.8,0,0,0,8
214,2021-10-18T03:33:00,0.9,東,1.7,南東,8.3,92.9,0,0,0,8
215,2021-10-18T03:34:00,0.9,東,1.7,南東,8.4,93.4,0,0,0,8
216,2021-10-18T03:35:00,0.9,東,1.7,南東,8.3,92.9,0,0,0,8
217,2021-10-18T03:36:00,0.9,東,1.7,南東,8.2,92.8,0,0,0,8
218,2021-10-18T03:37:00,0.8,東,1.6,東北東,8.2,93,0,0,0,8
219,2021-10-18T03:38:00,0.8,東北東,1.6,東北東,8.1,93,0,0,0,8
220,2021-10-18T03:39:00,0.8,東北東,1.6,東北東,8.1,93,0,0,0,8
221,2021-10-18T03:40:00,0.8,東北東,1.7,東南東,8.1,93.1,0,0,0,8
222,2021-10-18T03:41:00,0.9,東北東,1.9,東南東,8.2,93.4,0,0,0,8
223,2021-10-18T03:42:00,0.9,東北東,1.9,東南東,8.3,93.7,0,0,0,8
224,2021-10-18T03:43:00,1,東,1.9,東南東,8.3,93.8,0,0,0,8
225,2021-10-18T03:44:00,1,東,1.9,東南東,8.3,93.7,0,0,0,8
226,2021-10-18T03:45:00,1,東,1.9,東南東,8.3,93.7,0,0,0,8
227,2021-10-18T03:46:00,1,東,1.9,東南東,8.3,93.7,0,0,0,8
228,2021-10-18T03:47:00,1.2,東,2.4,東南東,8.3,93.8,0,0,0,8
229,2021-10-18T03:48:00,1.3,東南東,2.5,南東,8.3,93.4,0,0,0,8
230,2021-10-18T03:49:00,1.3,東南東,2.5,南東,8.2,93.3,0,0,0,8
231,2021-10-18T03:50:00,1.3,東南東,2.5,南東,8.2,93.4,0,0,0,8
232,2021-10-18T03:51:00,1.3,東南東,2.5,南東,8.4,93.6,0,0,0,8
233,2021-10-18T03:52:00,1.2,東南東,2.5,南東,8.4,94.2,0,0,0,8
234,2021-10-18T03:53:00,1.2,東南東,2.5,南東,8.3,93.3,0,0,0,8
235,2021-10-18T03:54:00,1.1,東南東,2.5,南東,8.2,92.9,0,0,0,8
236,2021-10-18T03:55:00,1.2,東,2.5,南東,8.2,93.1,0,0,0,8
237,2021-10-18T03:56:00,1.1,東,2.5,南東,8.2,93.2,0,0,0,8
238,2021-10-18T03:57:00,1,東,2.5,南東,8.2,93.2,0,0,0,8
239,2021-10-18T03:58:00,0.9,東,2,東南東,8.2,93.2,0,0,0,8
240,2021-10-18T03:59:00,0.8,東,2,東南東,8.1,93.2,0,0,0,8
241,2021-10-18T04:00:00,0.7,東,2,東南東,8.2,93.2,0,0,0,8
242,2021-10-18T04:01:00,0.8,東,2,東南東,8.2,93.4,0,0,0,8
243,2021-10-18T04:02:00,0.9,東,2,東南東,8.1,93.2,0,0,0,8
244,2021-10-18T04:03:00,0.9,東,2,東南東,8.2,93.4,0,0,0,8
245,2021-10-18T04:04:00,0.9,東,2,東南東,8.2,93.4,0,0,0,8
246,2021-10-18T04:05:00,0.8,東,1.8,南東,8.2,93.3,0,0,0,8
247,2021-10-18T04:06:00,0.9,東,1.8,南東,8.2,93.4,0,0,0,8
248,2021-10-18T04:07:00,0.9,東,1.8,南東,8.2,93.3,0,0,0,8
249,2021-10-18T04:08:00,0.9,東,1.8,南東,8.5,94.4,0,0,0,8
250,2021-10-18T04:09:00,0.9,東,1.8,南東,8.2,93.5,0,0,0,8
251,2021-10-18T04:10:00,0.9,東,1.8,南東,8.1,92.8,0,0,0,8
252,2021-10-18T04:11:00,0.9,東,1.8,南東,8.1,93,0,0,0,8
253,2021-10-18T04:12:00,0.9,東,2.5,東南東,8.1,93.2,0,0,0,8
254,2021-10-18T04:13:00,1,東,2.5,東南東,8.1,93.1,0,0,0,8
255,2021-10-18T04:14:00,1,東,2.5,東南東,8,93.1,0,0,0,8
256,2021-10-18T04:15:00,1,東,2.5,東南東,8,92.9,0,0,0,8
257,2021-10-18T04:16:00,1,東,2.5,東南東,8,93.2,0,0,0,8
258,2021-10-18T04:17:00,1.1,東,2.5,東南東,8,93.4,0,0,0,8
259,2021-10-18T04:18:00,1.1,東,2.5,東南東,8,93.5,0,0,0,8
260,2021-10-18T04:19:00,1.1,東南東,2.5,東南東,8,93.5,0,0,0,8
261,2021-10-18T04:20:00,1.1,東,2.5,東南東,8,93.4,0,0,0,8
262,2021-10-18T04:21:00,1,東南東,2.5,東南東,7.9,93.1,0,0,0,8
263,2021-10-18T04:22:00,1,東南東,1.8,南東,8,93.3,0,0,0,8
264,2021-10-18T04:23:00,1,東南東,2.2,南東,8,93.7,0,0,0,8
265,2021-10-18T04:24:00,1.1,東南東,2.2,南東,8.1,93.9,0,0,0,8
266,2021-10-18T04:25:00,1.1,東南東,2.2,南東,8,93.6,0,0,0,8
267,2021-10-18T04:26:00,1.1,東南東,2.2,南東,8,93.5,0,0,0,8
268,2021-10-18T04:27:00,1.1,東南東,2.2,南東,8,93.5,0,0,0,8
269,2021-10-18T04:28:00,1.2,東南東,2.2,南東,8,93.5,0,0,0,8
270,2021-10-18T04:29:00,1.3,東南東,2.4,東南東,8,93.5,0,0,0,8
271,2021-10-18T04:30:00,1.4,東南東,2.4,東南東,7.9,93.5,0,0,0,8
272,2021-10-18T04:31:00,1.5,東南東,2.4,東南東,7.9,93.5,0,0,0,8
273,2021-10-18T04:32:00,1.5,東南東,2.4,東南東,7.9,93.5,0,0,0,8
274,2021-10-18T04:33:00,1.5,東南東,2.4,東南東,8,93.8,0,0,0,8
275,2021-10-18T04:34:00,1.6,東南東,2.7,東北東,7.9,93.8,0,0,0,8
276,2021-10-18T04:35:00,1.6,東南東,2.7,東北東,7.9,93.7,0,0,0,8
277,2021-10-18T04:36:00,1.5,東南東,2.7,東北東,7.9,93.7,0,0,0,8
278,2021-10-18T04:37:00,1.5,東,2.7,東北東,7.9,93.7,0,0,0,8
279,2021-10-18T04:38:00,1.4,東,2.7,東北東,7.8,93.3,0,0,0,8
280,2021-10-18T04:39:00,1.3,東,2.7,東北東,7.7,93.1,0,0,0,8
281,2021-10-18T04:40:00,1.2,東,2.7,東北東,7.7,93.4,0,0,0,8
282,2021-10-18T04:41:00,1.1,東,2.7,東北東,7.9,94.2,0,0,0,8
283,2021-10-18T04:42:00,1,東北東,2.7,東北東,7.8,93.7,0,0,0,8
284,2021-10-18T04:43:00,0.9,東北東,2.7,東北東,7.7,93.4,0,0,0,8
285,2021-10-18T04:44:00,0.9,東北東,2.3,東北東,7.7,93.6,0,0,0,8
286,2021-10-18T04:45:00,0.9,東,1.6,東南東,7.7,93.6,0,0,0,8
287,2021-10-18T04:46:00,0.8,東,1.6,東南東,7.7,93.8,0,0,0,8
288,2021-10-18T04:47:00,0.8,東,1.6,東南東,7.7,93.8,0,0,0,8
289,2021-10-18T04:48:00,0.9,東,2,南南東,7.7,93.7,0,0,0,8
290,2021-10-18T04:49:00,0.9,東,2,南南東,8,94.8,0,0,0,8
291,2021-10-18T04:50:00,0.8,東南東,2,南南東,7.8,93.8,0,0,0,8
292,2021-10-18T04:51:00,0.8,東南東,2,南南東,7.7,93.3,0,0,0,8
293,2021-10-18T04:52:00,0.8,東南東,2,南南東,7.8,93.8,0,0,0,8
294,2021-10-18T04:53:00,0.9,東南東,2.3,東南東,7.8,94.1,0,0,0,8
295,2021-10-18T04:54:00,1,東南東,2.3,東南東,7.8,94,0,0,0,8
296,2021-10-18T04:55:00,1,東南東,2.4,東,7.8,93.9,0,0,0,8
297,2021-10-18T04:56:00,1,東南東,2.4,東,7.9,94,0,0,0,8
298,2021-10-18T04:57:00,1.1,東南東,2.4,東,7.8,93.7,0,0,0,8
299,2021-10-18T04:58:00,1,東南東,2.4,東,7.7,93.5,0,0,0,8
300,2021-10-18T04:59:00,1.1,東,2.4,東,7.7,93.5,0,0,0,8
301,2021-10-18T05:00:00,1.2,東,2.4,東,7.7,93.6,0,0,0,8
302,2021-10-18T05:01:00,1.2,東南東,2.4,東,7.7,93.7,0,0,0,8
303,2021-10-18T05:02:00,1.2,東南東,2.4,東,7.7,93.7,0,0,0,8
304,2021-10-18T05:03:00,1.2,東南東,2.4,東,7.7,93.7,0,0,0,8
305,2021-10-18T05:04:00,1.2,東南東,2.4,東,7.8,93.8,0,0,0,8
306,2021-10-18T05:05:00,1.1,東南東,2.4,南,7.8,94,0,0,0,8
307,2021-10-18T05:06:00,1.1,東南東,2.4,南,7.9,94.4,0,0,0,8
308,2021-10-18T05:07:00,1,東南東,2.4,南,7.8,93.9,0,0,0,8
309,2021-10-18T05:08:00,0.9,東南東,2.4,南,7.7,93.6,0,0,0,8
310,2021-10-18T05:09:00,0.9,東南東,2.4,南,7.7,93.8,0,0,0,8
311,2021-10-18T05:10:00,0.8,東南東,2.4,南,7.7,93.6,0,0,0,8
312,2021-10-18T05:11:00,0.8,東南東,2.4,南,7.6,93.4,0,0,0,8
313,2021-10-18T05:12:00,0.7,東南東,2.4,南,7.7,93.6,0,0,0,8
314,2021-10-18T05:13:00,0.6,東南東,2.4,南,7.8,93.9,0,0,0,8
315,2021-10-18T05:14:00,0.5,東,1.6,南南東,7.6,93.6,0,0,0,8
316,2021-10-18T05:15:00,0.5,東北東,1.5,北北東,7.4,92.6,0,0,0,8
317,2021-10-18T05:16:00,0.6,東北東,1.5,北北東,7.3,92.7,0,0,0,8
318,2021-10-18T05:17:00,0.6,東北東,1.5,北北東,7.3,93.3,0,0,0,8
319,2021-10-18T05:18:00,0.6,東北東,1.5,北北東,7.4,93.6,0,0,0,8
320,2021-10-18T05:19:00,0.6,東北東,2,東南東,7.4,93.7,0,0,0,8
321,2021-10-18T05:20:00,0.7,東北東,2,東南東,7.4,93.7,0,0,0,8
322,2021-10-18T05:21:00,0.8,東北東,2,東南東,7.6,94,0,0,0,8
323,2021-10-18T05:22:00,0.8,東北東,2,東南東,7.6,94.7,0,0,0,8
324,2021-10-18T05:23:00,0.9,東北東,2,東南東,7.2,92.9,0,0,0,8
325,2021-10-18T05:24:00,0.9,北東,2,東南東,7.2,93,0,0,0,8
326,2021-10-18T05:25:00,0.8,東北東,2,東南東,7.3,93.5,0,0,0,8
327,2021-10-18T05:26:00,0.9,東北東,2,東南東,7.4,94.2,0,0,0,8
328,2021-10-18T05:27:00,1,東北東,2,東南東,7.4,94.2,0,0,0,8
329,2021-10-18T05:28:00,1,東北東,2,東南東,7.4,94,0,0,0,8
330,2021-10-18T05:29:00,1,東北東,2,東,7.4,93.7,0,0,0,8
331,2021-10-18T05:30:00,0.8,北東,1.5,北東,7.7,94.4,0,0,0,8
332,2021-10-18T05:31:00,0.7,北東,1.5,北東,7.8,95.1,0,0,0,8
333,2021-10-18T05:32:00,0.7,北東,1.5,北東,7.6,94.3,0,0,0,8
334,2021-10-18T05:33:00,0.7,東北東,1.5,北東,7.6,93.9,0,0,0,8
335,2021-10-18T05:34:00,0.7,東北東,1.5,北東,7.5,93.8,0,0,0,8
336,2021-10-18T05:35:00,0.7,東北東,1.5,北東,7.4,93.4,0,0,0,8
337,2021-10-18T05:36:00,0.7,北東,1.4,北東,7.3,93.2,0,0,0,8
338,2021-10-18T05:37:00,0.7,北東,1.4,北東,7.3,93.6,0,0,0,8
339,2021-10-18T05:38:00,0.7,北東,1.4,北東,7.4,93.9,0,0,0,8
340,2021-10-18T05:39:00,0.6,東北東,1.4,北東,7.4,93.9,0,0,0,8
341,2021-10-18T05:40:00,0.6,東北東,1.4,北東,7.5,94.1,0,0,0,8
342,2021-10-18T05:41:00,0.7,東北東,1.4,北東,7.4,93.6,0,0,0,8
343,2021-10-18T05:42:00,0.7,東北東,1.6,北東,7.4,93.7,0,0,0,8
344,2021-10-18T05:43:00,0.8,東北東,2,東北東,7.3,93.6,0,0,0,8
345,2021-10-18T05:44:00,0.9,東北東,2,東北東,7.4,93.9,0,0,0,8
346,2021-10-18T05:45:00,0.8,東北東,2,東北東,7.4,93.9,0,0,0,8
347,2021-10-18T05:46:00,0.8,東北東,2,東北東,7.4,93.9,0,0,0,8
348,2021-10-18T05:47:00,0.8,東北東,2,東北東,7.3,93.8,0,0,0,8
349,2021-10-18T05:48:00,0.8,東北東,2,東北東,7.4,93.9,0,0,0,8
350,2021-10-18T05:49:00,0.8,東北東,2,東北東,7.3,93.8,0,0,0,8
351,2021-10-18T05:50:00,0.8,東,2,東北東,7.3,93.7,0,0,0,8
352,2021-10-18T05:51:00,0.8,東,2,東北東,7.3,93.7,0,0,0,8
353,2021-10-18T05:52:00,0.8,東,2,東北東,7.3,93.6,0,0,0,8
354,2021-10-18T05:53:00,0.7,東,1.7,東北東,7.4,94.1,0,0,0,8
355,2021-10-18T05:54:00,0.6,東,1.2,東南東,7.4,93.9,0,0,0,8
356,2021-10-18T05:55:00,0.5,東,1.2,東南東,7.3,93.9,0,0,0,8
357,2021-10-18T05:56:00,0.6,東,1.4,北東,7.3,93.9,0,0,0,8
358,2021-10-18T05:57:00,0.6,東,1.4,北東,7.2,93.6,0,0,0,8
359,2021-10-18T05:58:00,0.7,東,1.6,東北東,7.2,93.6,0,0,0,8
360,2021-10-18T05:59:00,0.8,東北東,3,東北東,7.3,93.9,0,0,0,8
361,2021-10-18T06:00:00,0.9,東北東,3,東北東,7.3,93.9,0,0,0,8
362,2021-10-18T06:01:00,1.1,東,3,東北東,7.3,94,0,0,0,8
363,2021-10-18T06:02:00,1.2,東,3.1,南南東,7.4,94,0,0,0,8
364,2021-10-18T06:03:00,1.4,東,3.1,南南東,7.4,94.2,0,0,0,8
365,2021-10-18T06:04:00,1.5,東,3.1,南南東,7.5,94.2,0,0,0,8
366,2021-10-18T06:05:00,1.6,東,3.1,南南東,7.5,93.9,0,0,0,8
367,2021-10-18T06:06:00,1.6,東,3.1,南南東,7.7,94.6,0,0,0,8
368,2021-10-18T06:07:00,1.6,東,3.1,南南東,7.5,93.9,0,0,0,8
369,2021-10-18T06:08:00,1.6,東,3.1,南南東,7.3,93.2,0,0,0,8
370,2021-10-18T06:09:00,1.5,東,3.1,南南東,7.2,93,0,0,0,8
371,2021-10-18T06:10:00,1.5,東,3.1,南南東,7.3,93.3,0,0,0,8
372,2021-10-18T06:11:00,1.4,東,3.1,南南東,7.3,93.4,0,0,0,8
373,2021-10-18T06:12:00,1.3,東,2.5,東北東,7.3,93.5,0,0,0,8
374,2021-10-18T06:13:00,1.3,東,2.5,東北東,7.3,93.6,0,0,0,8
375,2021-10-18T06:14:00,1.2,東,2.5,東北東,7.4,93.8,0,0,0,8
376,2021-10-18T06:15:00,1.1,東北東,2.5,東北東,7.5,94,0,0,0,8
377,2021-10-18T06:16:00,1.1,東北東,2.5,東北東,7.4,94,0,0,0,8
378,2021-10-18T06:17:00,1.1,東北東,2.5,東北東,7.3,93.2,0,0,0,8
379,2021-10-18T06:18:00,1.1,東北東,2.5,東北東,7.3,93.2,0,0,0,8
380,2021-10-18T06:19:00,1.2,東北東,2.5,東北東,7.3,93.5,0,0,0,8
381,2021-10-18T06:20:00,1.2,東,2.5,東北東,7.4,93.6,0,0,0,0
382,2021-10-18T06:21:00,1.2,東,2.5,東北東,7.5,93.8,0,0,0,0
383,2021-10-18T06:22:00,1.2,東,2.4,東北東,7.5,93.8,0,0,0,0
384,2021-10-18T06:23:00,1.2,東,2.4,東北東,7.4,93.5,0,0,0,0
385,2021-10-18T06:24:00,1.2,東,2.4,東北東,7.3,93.1,0,0,0,0
386,2021-10-18T06:25:00,1.2,東,2.4,東北東,7.4,93.4,0,0,0,0
387,2021-10-18T06:26:00,1.2,東,2.4,東北東,7.4,93.5,0,0,0,0
388,2021-10-18T06:27:00,1.1,東,2.1,東南東,7.4,93.3,0,0,0,0
389,2021-10-18T06:28:00,0.9,東,2.1,東南東,7.4,93.4,0,0,0,0
390,2021-10-18T06:29:00,0.8,東北東,2.1,東南東,7.3,93.2,0,0,0,0
391,2021-10-18T06:30:00,0.7,東北東,2.1,東南東,7.3,93,0,0,0,0
392,2021-10-18T06:31:00,0.6,東北東,1.7,東北東,7.2,92.9,0,0,0,0
393,2021-10-18T06:32:00,0.6,東北東,1.8,東北東,7.2,92.9,0,0,0,0
394,2021-10-18T06:33:00,0.6,東北東,2.6,東北東,7.2,92.9,0,0,0,0
395,2021-10-18T06:34:00,0.7,東北東,2.7,東北東,7.2,92.9,0,0,0,0
396,2021-10-18T06:35:00,0.8,東北東,2.7,東北東,7.3,93.4,0,0,0,0
397,2021-10-18T06:36:00,0.9,東北東,3,東南東,7.3,93.6,0,0,0,0
398,2021-10-18T06:37:00,1.1,東北東,3,東南東,7.3,93.5,0,0,0,0
399,2021-10-18T06:38:00,1.3,東北東,3,東南東,7.3,93.4,0,0,0,0
400,2021-10-18T06:39:00,1.4,東北東,3,東南東,7.3,93.3,0,0,0,0
401,2021-10-18T06:40:00,1.4,東北東,3,東南東,7.4,93.4,0,0,0,0
402,2021-10-18T06:41:00,1.4,東,3,東南東,7.2,93.1,0,0,0,0
403,2021-10-18T06:42:00,1.4,東,3,東南東,7.2,93,0,0,0,0
404,2021-10-18T06:43:00,1.4,東,3,東南東,7.2,93.1,0,0,0,0
405,2021-10-18T06:44:00,1.4,東,3,東南東,7.2,93.1,0,0,0,0
406,2021-10-18T06:45:00,1.3,東,3,東南東,7.3,93.4,0,0,0,0
407,2021-10-18T06:46:00,1.3,東,2.3,東南東,7.3,93.5,0,0,0,0
408,2021-10-18T06:47:00,1.2,東,2.1,東南東,7.4,93.7,0,0,0,0
409,2021-10-18T06:48:00,1.1,東,2,東北東,7.5,93.8,0,0,0,0
410,2021-10-18T06:49:00,1.1,東北東,2,東北東,7.5,93.9,0,0,0,0
411,2021-10-18T06:50:00,1.1,東,2,東北東,7.5,93.5,0,0,0,0
412,2021-10-18T06:51:00,1.1,東,2,東北東,7.5,93.4,0,0,0,0
413,2021-10-18T06:52:00,1.1,東,2,東北東,7.6,93.6,0,0,0,0
414,2021-10-18T06:53:00,1,東,2,東北東,7.6,93.8,0,0,0,0
415,2021-10-18T06:54:00,1,東,1.8,東,7.6,93.6,0,0,0,0
416,2021-10-18T06:55:00,1,東,1.8,東,7.6,93.5,0,0,0,0
417,2021-10-18T06:56:00,1,東,1.8,東,7.7,93.4,0,0,0,0
418,2021-10-18T06:57:00,1,東,1.8,東,7.6,93.1,0,0,0,0
419,2021-10-18T06:58:00,1,東,1.8,東,7.7,93.3,0,0,0,0
420,2021-10-18T06:59:00,1.1,東,2.2,東南東,7.8,93.6,0,0,0,0
421,2021-10-18T07:00:00,1.1,東,2.2,東南東,7.9,93.4,0,0,0,0
422,2021-10-18T07:01:00,1.1,東,2.2,東南東,7.9,93.2,0,0,0,0
423,2021-10-18T07:02:00,1.2,東,2.2,東南東,7.8,93.1,0,0,0,0
424,2021-10-18T07:03:00,1.3,東,2.2,東南東,7.8,92.5,0,0,0,0
425,2021-10-18T07:04:00,1.3,東,2.3,東南東,7.8,92.7,0,0,0,0
426,2021-10-18T07:05:00,1.4,東,2.4,東,7.9,92.9,0,0,0,0
427,2021-10-18T07:06:00,1.4,東,2.4,東,8,93,0,0,0,0
428,2021-10-18T07:07:00,1.4,東,2.4,東,8,92.8,0,0,0,0
429,2021-10-18T07:08:00,1.4,東,2.4,東,8,92.5,0,0,0,0
430,2021-10-18T07:09:00,1.3,東,2.4,東,8,92.5,0,0,0,0
431,2021-10-18T07:10:00,1.2,東,2.4,東,8.1,92.5,0,0,0,0
432,2021-10-18T07:11:00,1.2,東,2.4,東,8.1,92.5,0,0,0,0
433,2021-10-18T07:12:00,1.1,東,2.4,東,8.3,92.8,0,0,0,0
434,2021-10-18T07:13:00,1.1,東,2.4,東,8.3,92.2,0,0,0,0
435,2021-10-18T07:14:00,1,東,2.4,東,8.3,92.2,0,0,0,0
436,2021-10-18T07:15:00,1,東,1.9,東北東,8.4,92,0,0,0,0
437,2021-10-18T07:16:00,1,東北東,1.9,東北東,8.3,91.4,0,0,0,0
438,2021-10-18T07:17:00,0.9,東北東,1.9,東北東,8.3,91.1,0,0,0,0
439,2021-10-18T07:18:00,1,東,1.9,東北東,8.3,91,0,0,0,0
440,2021-10-18T07:19:00,1,東,1.9,東北東,8.2,90.6,0,0,0,0
441,2021-10-18T07:20:00,1,東,1.9,東北東,8.3,90.7,0,0,0,0
442,2021-10-18T07:21:00,1,東,1.9,東北東,8.3,90.7,0,0,0,0